Regional Weather Roundup
Issued by NWS Burlington, VT

Home | Current Version | Previous Version | Text Only | Print | Product List | Glossary On
Versions: 1 2 3 4 5 6 7 8 9 10 11 12 13 14 15 16 17 18 19 20 21 22 23 24 25 26 27 28 29 30 31 32 33 34 35 36 37 38 39 40 41 42 43 44 45 46 47 48 49 50
000
ASUS41 KBTV 262230
RWRBTV
VERMONT REGIONAL WEATHER ROUNDUP
NATIONAL WEATHER SERVICE BURLINGTON VT
500 PM EST MON JAN 26 2015

NOTE: "FAIR" INDICATES FEW OR NO CLOUDS BELOW 12,000 FEET WITH NO
SIGNIFICANT WEATHER AND/OR OBSTRUCTIONS TO VISIBILITY.

* THESE REPORTS ARE NOT UNDER NWS QUALITY CONTROL AND/OR DO NOT
  REPORT WEATHER SUCH AS PRECIPITATION AND FOG.

VTZ001>019-262300-
_____VERMONT_____


CITY           SKY/WX    TMP DP  RH WIND       PRES   REMARKS
BURLINGTON     CLOUDY    10  -1  61 NW9       30.14R
MONTPELIER     PTCLDY    11  -1  58 CALM      30.08S
MORRISVILLE    CLOUDY    12   0  58 NE6       30.12R
ST. JOHNSBURY*   N/A     14  -1  51 MISG      30.08R
MIDDLEBURY*    CLOUDY    12   2  65 N9        30.08S
RUTLAND*       CLOUDY    18   1  49 NE6       30.01S
SPRINGFIELD    CLOUDY    19   1  45 NE6       30.07R
HIGHGATE*      FAIR       5  -4  67 CALM      30.17R
NEWPORT*       FAIR       3  -6  66 N5        30.12R
BENNINGTON     LGT SNOW  20  12  71 VRB6      29.95F
GALLUP MILLS*    N/A      9 N/A N/A MISG        N/A
UNION VILLAGE*   N/A     16 N/A N/A MISG        N/A
MT. MANSFIELD*   N/A      1 N/A N/A CALM        N/A

_____LAKE CHAMPLAIN_____


CITY           SKY/WX    TMP DP  RH WIND       PRES   REMARKS
BURTON ISLAND*   N/A      9   0  66 N2          N/A
COLCHESTER RF*   N/A     12   3  67 N15         N/A  WCI  -4
DIAMOND ISL*     N/A     12   5  73 NW17        N/A  WCI  -5

$$

NYZ007-026>031-035-052-083-262300-
_____NORTHERN NEW YORK_____


CITY           SKY/WX    TMP DP  RH WIND       PRES   REMARKS
PLATTSBURGH    MOCLDY     8  -3  61 N9        30.17R
SARANAC LAKE   CLOUDY     6  -5  60 NE14      29.94R WCI -11
MASSENA        CLOUDY     6  -4  63 NE16      30.15R WCI -12
OGDENSBURG*    CLEAR      9   0  66 NE12      30.10R WCI  -6
POTSDAM*       CLOUDY     7  -2  66 E8        30.09R
STARK FALLS*     N/A      7 N/A N/A NE2         N/A
WATERTOWN      CLOUDY    12  -1  56 NE17      30.03R WCI  -5
FT DRUM        CLOUDY     7  -2  66 NE13      30.00R WCI  -9
ALBANY         LGT SNOW  17   5  59 N8        30.02S
GLENS FALLS    CLOUDY    18   2  49 NE7       30.05S

$$
NHZ002-005-011-262300-
_____NEW HAMPSHIRE_____


CITY           SKY/WX    TMP DP  RH WIND       PRES   REMARKS
LEBANON        CLOUDY    20  -3  36 NE6       30.07R
KEENE          CLOUDY    19   5  53 N6        30.03F
MT WASHINGTON  MOCLDY    12 -24  18 NW6         N/A
PLYMOUTH       FAIR      19   3  50 CALM      30.09F
WHITEFIELD     MOCLDY    15  -3  44 CALM      30.06R

$$

_____REGIONAL QUEBEC LOCATIONS_____


CITY           SKY/WX    TMP DP  RH WIND       PRES   REMARKS
MONTREAL       PTCLDY     3  -9  55 NE16      30.21R WCI -16
QUEBEC CITY    PTCLDY     1  -9  60 CALM      30.23R
SHERBROOKE     CLEAR      7  -6  56 NE5       30.13R

_____REGIONAL ONTARIO LOCATIONS_____


CITY           SKY/WX    TMP DP  RH WIND       PRES   REMARKS
OTTAWA         PTCLDY     5  -8  56 NE12      30.15R WCI -11

______KEY______
VSB  - VISIBILITY IN MILES
WCI  - WIND CHILL INDEX
HX   - HEAT INDEX
$$
NNNN


USA.gov is the U.S. government's official web portal to all federal, state and local government web resources and services.